Weather History for BGDH - March, 2014

Change the Weather History Date:

Sunday, March 2, 2014

  Actual Average Record
Temperature  
Mean Temperature -12 °F -  
Max Temperature -6 °F - - ()
Min Temperature -19 °F - - ()
Degree Days  
Heating Degree Days 77    
Moisture  
Dew Point -17 °F    
Average Humidity 68    
Maximum Humidity 76    
Minimum Humidity 61    
Precipitation  
Precipitation 0.03 in - - ()
Sea Level Pressure  
Sea Level Pressure 30.05 in    
Wind  
Wind Speed 15 mph ()    
Max Wind Speed 25 mph    
Max Gust Speed -    
Visibility 3.7 miles    
Events Snow    
T = Trace of Precipitation, MM = Missing Value Source: Averaged Metar Reports

Daily Weather History Graph

Daily Weather History Graph

Search for Another Location

Airport or City:

Trip Planner

Search our weather history database for the weather conditions in past years. The results will help you decide how hot, cold, wet, or windy it might be!

Date:

Astronomy

Mar. 02, 2014 Rise Set
Actual Time 6:19 AM WGT 2:36 PM WGT
Civil Twilight 4:44 AM WGT 4:12 PM WGT
Nautical Twilight 2:58 AM WGT 5:59 PM WGT
Astronomical Twilight 12:46 AM WGT 8:16 PM WGT
Moon 5:00 AM WGT (3/2) 6:39 PM WGT (3/2)
Length of Visible Light 11h 27m
Length of Day
8h 17m
New Moon, 2% of the Moon is Illuminated
Mar 2
New Moon
Mar 8
First Quarter
Mar 16
Full
Mar 23
Last Quarter
Mar 30
New

Hourly Weather History & Observations

Time (WGT) Temp. Dew Point Humidity Pressure Visibility Wind Dir Wind Speed Gust Speed Precip Events Conditions
12:00 AM -6 °F -10 °F 74% 30.18 in 1 mi WNW 20.7 mph - -   Ice Crystals
1:00 AM -7 °F -11 °F 76% 30.17 in 1 mi NW 21.9 mph - -   Ice Crystals
2:00 AM -7 °F -11 °F 71% 30.15 in 2 mi NW 24.2 mph - -   Ice Crystals
3:00 AM -7 °F -12 °F 70% 30.14 in 2 mi NW 25.3 mph - -   Ice Crystals
4:00 AM -7 °F -11 °F 73% 30.13 in 0 mi NNW 23.0 mph - - Snow Snow
5:00 AM -7 °F -12 °F 70% 30.12 in 0 mi NNW 23.0 mph - -   Ice Crystals
6:00 AM -8 °F -12 °F 73% 30.11 in 0 mi NNW 25.3 mph - - Snow Light Snow
7:00 AM -9 °F -13 °F 73% 30.11 in 1 mi WNW 20.7 mph - - Snow Light Snow Showers
8:00 AM -8 °F -13 °F 69% 30.10 in 1 mi WNW 20.7 mph - - Snow Light Snow Showers
9:00 AM -8 °F -12 °F 71% 30.10 in 31 mi WNW 12.7 mph - - Snow Snow
10:00 AM -10 °F -15 °F 70% 30.09 in 13 mi NW 13.8 mph - -   Overcast
11:00 AM -9 °F -14 °F 68% 30.06 in 22 mi NW 13.8 mph - -  
12:00 PM -12 °F -17 °F 68% 30.04 in 31 mi West 8.1 mph - -   Partly Cloudy
1:00 PM -14 °F -19 °F 65% 30.02 in 31 mi West 3.5 mph - -  
2:00 PM -14 °F -19 °F 64% 30.01 in 31 mi West 6.9 mph - -  
3:00 PM -16 °F -22 °F 62% 30.00 in 9 mi WNW 15.0 mph - -   Clear
4:00 PM -16 °F -21 °F 67% 29.99 in 31 mi NW 9.2 mph - -  
5:00 PM -15 °F -20 °F 68% 29.98 in 31 mi West 13.8 mph - -  
6:00 PM -17 °F -23 °F 62% 29.97 in 31 mi NW 9.2 mph - -   Scattered Clouds
7:00 PM -17 °F -23 °F 63% 29.95 in 31 mi West 8.1 mph - -  
8:00 PM -18 °F -23 °F 63% 29.93 in 31 mi West 6.9 mph - -  
9:00 PM -17 °F -22 °F 65% 29.91 in 14 mi WNW 16.1 mph - -   Clear
10:00 PM -19 °F -25 °F 61% 29.89 in 28 mi WNW 10.4 mph - -